BEIDOU-2 IGSO-6

Last updated on Sat Aug 22 2026 00:02:59 GMT+0000 (Coordinated Universal Time)

1 41434U 16021A 26233.42956861 -.00000133 00000+0 00000+0 0 9999 2 41434 60.3246 37.3930 0060624 227.8427 314.8682 1.00287093 38131
UTC large
Height (km)
Speed (km/s)
/
Latitude / Longitude
Inclination (degrees)
Orbital Period (minutes)
Azimuth
Elevation
Range (km)
Doppler Factor

Next 0 passes for location: London (51.5072 / 0.1276)

No passes found over London.